Regional Weather Roundup
Issued by NWS

Home | Current Version | Previous Version | Graphics & Text | Print | Product List | Glossary Off
Versions: 1 2 3 4 5 6 7 8 9 10 11 12 13 14 15 16 17 18 19 20 21 22 23 24 25 26 27 28 29 30 31 32 33 34 35 36 37 38 39 40 41 42 43 44 45 46 47 48 49 50

000
ASUS43 KDTX 211801
RWRMI
MICHIGAN HOURLY REGIONAL WEATHER ROUNDUP
NATIONAL WEATHER SERVICE DETROIT/PONTIAC MI
100 PM EST SUN DEC 21 2014

NOTE: "FAIR" INDICATES FEW OR NO CLOUDS BELOW 12,000 FEET WITH NO
SIGNIFICANT WEATHER AND/OR OBSTRUCTION TO VISIBILITY.

MIZ047>049-052>055-059>063-066>070-074>076-081>083-211900-
SOUTHEAST LOWER MICHIGAN

CITY           SKY/WX    TMP DP  RH WIND       PRES   REMARKS
ADRIAN         CLOUDY    32  27  81 S8        30.26F HAZE    WCI  25
6HR MIN TEMP:  26; 6HR MAX TEMP:  32;

ALMA           CLOUDY    33  28  82 S9        30.22F HAZE    WCI  25
ANN ARBOR      CLOUDY    32  24  72 S7        30.25F WCI  26
BAD AXE        MOSUNNY   32  26  78 S8        30.25F WCI  25
6HR MIN TEMP:  22; 6HR MAX TEMP:  32;

CARO           CLOUDY    32  24  73 S6        30.24F WCI  26
DETROIT CITY   MOSUNNY   36  23  59 S5        30.27F WCI  32
6HR MIN TEMP:  25; 6HR MAX TEMP:  37;

DETROIT        PTSUNNY   34  23  64 SE7       30.27F WCI  28
6HR MIN TEMP:  27; 6HR MAX TEMP:  35;

FLINT          CLOUDY    34  24  67 S10       30.24F WCI  26
6HR MIN TEMP:  29; 6HR MAX TEMP:  34;

GROSSE ILE     MOSUNNY   36  27  69 S7        30.26F WCI  30
HILLSDALE      CLOUDY    32  28  82 S9        30.21F HAZE    WCI  25
6HR MIN TEMP:  29; 6HR MAX TEMP:  32;

HOWELL         CLOUDY    32  27  81 SE9       30.23F HAZE    WCI  24
6HR MIN TEMP:  27; 6HR MAX TEMP:  32;


CITY           SKY/WX    TMP DP  RH WIND       PRES   REMARKS
JACKSON        CLOUDY    33  25  72 S10       30.22F WCI  25
6HR MIN TEMP:  28; 6HR MAX TEMP:  33;

LAMBERTVILLE   CLOUDY    34  27  75 S3        30.26F
LANSING        CLOUDY    33  26  75 S10       30.22F WCI  25
6HR MIN TEMP:  29; 6HR MAX TEMP:  34;

LAPEER         CLOUDY    32  24  71 S7        30.24F WCI  26
MASON          CLOUDY    32  27  83 S7        30.22F HAZE    WCI  25
MONROE         MOSUNNY   34  25  69 S7        30.25F WCI  28
MT. CLEMENS    PTSUNNY   34  25  70 SE13      30.24F WCI  25
6HR MIN TEMP:  22; 6HR MAX TEMP:  35;

PONTIAC        CLOUDY    32  22  66 S8        30.23F WCI  25
6HR MIN TEMP:  26; 6HR MAX TEMP:  32;

PORT HOPE        N/A     32  24  72 S7        30.23F WCI  26
6HR MIN TEMP:  21; 6HR MAX TEMP:  32;

PORT HURON     MOSUNNY   34  25  69 S8        30.27F WCI  27
TRI CITIES     CLOUDY    34  27  75 S8        30.23F WCI  27
6HR MIN TEMP:  29; 6HR MAX TEMP:  34;

TROY           CLOUDY    37  23  58 S10       30.27F WCI  29
SAGINAW HB     CLOUDY    32  28  86 S7        30.23F WCI  26
$$
MIZ043>046-050>051-056>058-064>065-071>073-077>080-211900-
SOUTHWEST LOWER MICHIGAN

CITY           SKY/WX    TMP DP  RH WIND       PRES   REMARKS
BATTLE CREEK   CLOUDY    34  25  69 S13       30.21F WCI  25
6HR MIN TEMP:  30; 6HR MAX TEMP:  34;

BENTON HARBOR  PTSUNNY   36  28  73 SE13      30.18F WCI  27
6HR MIN TEMP:  31; 6HR MAX TEMP:  36;

BIG RAPIDS     CLOUDY    32  31  94 S6        30.17F FOG     WCI  26
6HR MIN TEMP:  30; 6HR MAX TEMP:  32;

COLDWATER      CLOUDY    32  25  74 MISG      30.21F
6HR MIN TEMP:  29; 6HR MAX TEMP:  32;

FREMONT        CLOUDY    32  28  83 S6        30.17F WCI  26
HOLLAND        CLOUDY    35  27  72 S10       30.19F WCI  27
6HR MIN TEMP:  32; 6HR MAX TEMP:  35;

GRAND RAPIDS   CLOUDY    33  25  72 S10       30.20F HAZE    WCI  25
6HR MIN TEMP:  30; 6HR MAX TEMP:  33;

IONIA          CLOUDY    34  27  75 S10       30.20F WCI  26
KALAMAZOO      CLOUDY    34  25  69 S13       30.20F HAZE    WCI  25
6HR MIN TEMP:  30; 6HR MAX TEMP:  34;

LUDINGTON      CLOUDY    36  32  85 S8        30.15F HAZE    WCI  29
6HR MIN TEMP:  32; 6HR MAX TEMP:  36;

MARSHALL       CLOUDY    32  25  76 S6        30.21F WCI  26
MOUNT PLEASANT CLOUDY    33  28  81 S7        30.20F HAZE    WCI  27
6HR MIN TEMP:  29; 6HR MAX TEMP:  33;

MUSKEGON       CLOUDY    34  27  75 S8        30.18F WCI  27
6HR MIN TEMP:  33; 6HR MAX TEMP:  34;

SOUTH HAVEN    CLOUDY    36  28  72 S10       30.19F HAZE    WCI  28
$$
MIZ016>042-211900-
NORTHERN LOWER MICHIGAN

CITY           SKY/WX    TMP DP  RH WIND       PRES   REMARKS
ALPENA         CLOUDY    30  24  78 S12       30.22F WCI  20
6HR MIN TEMP:  22; 6HR MAX TEMP:  30;

BEAVER ISLAND  CLOUDY    33  32  95 S7        30.14F FOG     WCI  27
6HR MIN TEMP:  31; 6HR MAX TEMP:  33;

BELLAIRE       CLOUDY    33  29  86 S6        30.17F FOG     WCI  27
6HR MIN TEMP:  28; 6HR MAX TEMP:  33;

CADILLAC       CLOUDY    30  29  96 S7        30.14F FOG     WCI  24
CHARLEVOIX     CLOUDY    32  29  90 SE10      30.18F FOG     WCI  23
6HR MIN TEMP:  27; 6HR MAX TEMP:  32;

FRANKFORT      CLOUDY    33  31  92 S8        30.14F FOG     WCI  26
GAYLORD        CLOUDY    29  27  92 S7        30.14F FOG     WCI  22
6HR MIN TEMP:  22; 6HR MAX TEMP:  29;

GRAYLING       CLOUDY    29  28  96 S7        30.17F FOG     WCI  22
6HR MIN TEMP:  26; 6HR MAX TEMP:  29;

HARBOR SPRINGS CLOUDY    30  26  85 CALM      30.16F
HOUGHTON LAKE  CLOUDY    29  27  92 VRB3      30.18F FOG
6HR MIN TEMP:  25; 6HR MAX TEMP:  29;

MANISTEE       CLOUDY    34  28  80 S7        30.15F WCI  28
OSCODA         CLOUDY    32  26  80 S8        30.22F WCI  24
PELLSTON       CLOUDY    29  25  85 SE6       30.17F WCI  23
6HR MIN TEMP:  24; 6HR MAX TEMP:  29;

ROGERS CITY    CLOUDY    29  27  94 S10       30.20F WCI  20
TRAVERSE CITY  CLOUDY    34  30  85 VRB5      30.15F FOG     WCI  30
6HR MIN TEMP:  30; 6HR MAX TEMP:  34;

$$
MIZ007>008-015-211900-
EASTERN UPPER MICHIGAN

CITY           SKY/WX    TMP DP  RH WIND       PRES   REMARKS
KINROSS        CLOUDY    30  27  86 SE9       30.17S WCI  22
6HR MIN TEMP:  25; 6HR MAX TEMP:  30;

MACKINAC ISLAN CLOUDY    29  26  86 SE9       30.16F WCI  21
6HR MIN TEMP:  28; 6HR MAX TEMP:  30;

NEWBERRY       CLOUDY    28  26  89 SE9       30.12F WCI  20
6HR MIN TEMP:  27; 6HR MAX TEMP:  28;

S. S. MARIE    CLOUDY    29  23  78 E5        30.19R WCI  24
6HR MIN TEMP:  25; 6HR MAX TEMP:  29;

MUNISING         N/A     35  29  78 S7        30.07F WCI  29
6HR MIN TEMP:  29; 6HR MAX TEMP:  35;

$$
MIZ004>006-011>014-085-211900-
CENTRAL UPPER MICHIGAN

CITY           SKY/WX    TMP DP  RH WIND       PRES   REMARKS
MANISTIQUE     CLOUDY    35  34  96 S12       30.10F FOG     WCI  26
6HR MIN TEMP:  29; 6HR MAX TEMP:  35;

ESCANABA       CLOUDY    34  28  80 S5        30.07F WCI  30
6HR MIN TEMP:  27; 6HR MAX TEMP:  36;

MENOMINEE      CLOUDY    34  30  86 S9        30.06F WCI  26
6HR MIN TEMP:  28; 6HR MAX TEMP:  34;

SAWYER-GWINN   CLOUDY    30  27  86 S15       30.03F FOG     WCI  19
$$
MIZ001>003-009>011-084-211900-
WESTERN UPPER MICHIGAN

CITY           SKY/WX    TMP DP  RH WIND       PRES   REMARKS
IRON MOUNTAIN  CLOUDY    29  27  92 S9        30.01F FOG     WCI  20
6HR MIN TEMP:  26; 6HR MAX TEMP:  29;

HOUGHTON       CLOUDY    32  27  81 SE8       29.95F WCI  25
6HR MIN TEMP:  28; 6HR MAX TEMP:  32;

COPPER HARBOR    N/A     34  28  79 SW12G18   29.99F WCI  25
6HR MIN TEMP:  30; 6HR MAX TEMP:  35;

IRONWOOD       CLOUDY    34  28  80 S8        29.87F WCI  27
6HR MIN TEMP:  28; 6HR MAX TEMP:  34;

$$

ABBREVIATIONS USED IN REMARKS
   TC - TEMPERATURE IN CELSIUS
  WCI - WIND CHILL INDEX
   HX - HEAT INDEX
  VSB - VISIBILITY




USA.gov is the U.S. government's official web portal to all federal, state and local government web resources and services.